This is the latest recevied weather packets stored in our database for station/object KC5DP. If no packets are shown the sender has not sent any weather packets the latest 10 day(s).
| Time | Temp. | Humidity | Pressure | Rain* | Wind** | Luminosity | Snow |
|---|---|---|---|---|---|---|---|
| 1777410108 | 29.44° C | 71% | 1013.8 hPa | 0 mm | - | 173 W/m² | - |
| 1777409803 | 30° C | 70% | 1013.8 hPa | 0 mm | - | 173 W/m² | - |
| 1777409499 | 29.44° C | 71% | 1013.8 hPa | 0 mm | - | 528 W/m² | - |
| 1777409195 | 30° C | 69% | 1013.9 hPa | 0 mm | - | 278 W/m² | - |
| 1777408892 | 30° C | 69% | 1014 hPa | 0 mm | - | 474 W/m² | - |
| 1777408588 | 30.56° C | 70% | 1013.9 hPa | 0 mm | - | 407 W/m² | - |
| 1777408284 | 31.11° C | 69% | 1014 hPa | 0 mm | - | 549 W/m² | - |
| 1777407984 | 30.56° C | 68% | 1014.1 hPa | 0 mm | - | 599 W/m² | - |
| 1777407682 | 30° C | 68% | 1014 hPa | 0 mm | - | 620 W/m² | - |
| 1777407382 | 29.44° C | 67% | 1013.9 hPa | 0 mm | - | 483 W/m² | - |
| 1777407082 | 30° C | 68% | 1014.2 hPa | 0 mm | - | 652 W/m² | - |
| 1777406777 | 29.44° C | 72% | 1014.2 hPa | 0 mm | - | 660 W/m² | - |
| 1777406473 | 29.44° C | 73% | 1014.6 hPa | 0 mm | - | 206 W/m² | - |
| 1777406168 | 30° C | 69% | 1014.7 hPa | 0 mm | - | 282 W/m² | - |
| 1777405863 | 30° C | 71% | 1014.7 hPa | 0 mm | - | 623 W/m² | - |
| 1777405559 | 29.44° C | 71% | 1015.1 hPa | 0 mm | - | 231 W/m² | - |
| 1777405257 | 30° C | 68% | 1015 hPa | 0 mm | - | 248 W/m² | - |
| 1777404955 | 30° C | 70% | 1015 hPa | 0 mm | - | 246 W/m² | - |
| 1777404651 | 30.56° C | 68% | 1015.2 hPa | 0 mm | - | 453 W/m² | - |
| 1777404348 | 30° C | 68% | 1015.1 hPa | 0 mm | - | 650 W/m² | - |
| 1777404044 | 30° C | 69% | 1015.2 hPa | 0 mm | - | 513 W/m² | - |
| 1777403740 | 29.44° C | 69% | 1015.6 hPa | 0 mm | - | 488 W/m² | - |
| 1777403438 | 30° C | 69% | 1015.8 hPa | 0 mm | - | 461 W/m² | - |
| 1777403138 | 30° C | 69% | 1015.5 hPa | 0 mm | - | 546 W/m² | - |
| 1777402834 | 29.44° C | 68% | 1015.4 hPa | 0 mm | - | 422 W/m² | - |
* Rain latest hour (hover to see other rain measurements)
** Current wind speed in m/s (hover to see current wind gust speed)